QTR1J OTHH-EDDM

Flight info

Callsign QTR1J
Flight time N/A
Altitude 28000
Route DATRI2W/34L DATRI L564 BAT/N0511F290 L564 MIGMA/N0500F280 M550 MEVDO Y511 ITRUX/N0496F340 Y511 PMA Z712 WEJ L677 DARAX/N0484F360 L677 CVO L617 NOZ L551 ANTAR DCT NEVRA DCT TALAS DCT ENFAR DCT AKIKA DCT SOLGU/N0471F380 DCT NAVSU DCT NEMEK DCT RASTA REDBU NAPSA
Aircraft B77L/H-SDE1E2E3FGHIJ2J3J4J5M1RWXY/LB1D1

Departure

Time N/A
Airport Hamad International Airport (OTHH)

Arrival

Time 2026-05-04 18:37
Airport Munich Airport (EDDM)
Time Latitude Longitude Altitude Speed Heading
2026-05-04 18:00 46.15867 14.51684 36050 ft 476 kts 313°
2026-05-04 18:01 46.20621 14.44993 36053 ft 477 kts 318°
2026-05-04 18:01 46.26102 14.39505 36050 ft 481 kts 329°
2026-05-04 18:02 46.34974 14.32728 36057 ft 482 kts 330°
2026-05-04 18:02 46.40890 14.28189 36030 ft 483 kts 329°
2026-05-04 18:03 46.46727 14.23389 36022 ft 482 kts 328°
2026-05-04 18:03 46.52640 14.18773 36027 ft 483 kts 330°
2026-05-04 18:04 46.58589 14.14220 36026 ft 483 kts 329°
2026-05-04 18:05 46.67491 14.07289 36030 ft 483 kts 329°
2026-05-04 18:05 46.73365 14.02664 36027 ft 483 kts 329°
2026-05-04 18:06 46.82190 13.95697 35118 ft 475 kts 329°
2026-05-04 18:06 46.85101 13.93394 34425 ft 474 kts 329°
2026-05-04 18:06 46.87965 13.91125 33735 ft 473 kts 329°
2026-05-04 18:07 46.90850 13.88837 33111 ft 470 kts 329°
2026-05-04 18:07 46.93715 13.86561 32298 ft 468 kts 331°
2026-05-04 18:07 46.96598 13.84268 31371 ft 474 kts 331°
2026-05-04 18:07 46.99518 13.81945 30429 ft 479 kts 331°
2026-05-04 18:08 47.02459 13.79602 29680 ft 482 kts 331°
2026-05-04 18:08 47.05423 13.77237 29013 ft 489 kts 331°
2026-05-04 18:08 47.08424 13.74839 28357 ft 505 kts 331°
2026-05-04 18:08 47.11539 13.72347 27669 ft 512 kts 331°
2026-05-04 18:09 47.17701 13.67417 26615 ft 492 kts 329°
2026-05-04 18:09 47.23604 13.62670 25393 ft 476 kts 330°
2026-05-04 18:10 47.26494 13.60341 24758 ft 470 kts 330°
2026-05-04 18:10 47.29341 13.58044 24164 ft 465 kts 330°
2026-05-04 18:10 47.32166 13.55763 23539 ft 460 kts 330°
2026-05-04 18:10 47.34959 13.53505 22839 ft 455 kts 330°
2026-05-04 18:11 47.37716 13.51275 22242 ft 449 kts 330°
2026-05-04 18:11 47.40439 13.49070 21663 ft 443 kts 330°
2026-05-04 18:11 47.43096 13.46918 21089 ft 438 kts 329°
2026-05-04 18:11 47.45784 13.44737 20540 ft 433 kts 329°
2026-05-04 18:12 47.48411 13.42599 19979 ft 428 kts 329°
2026-05-04 18:12 47.50948 13.40519 19476 ft 424 kts 328°
2026-05-04 18:12 47.53376 13.38194 18930 ft 419 kts 321°
2026-05-04 18:12 47.55643 13.35501 18417 ft 415 kts 319°
2026-05-04 18:13 47.57859 13.32781 17824 ft 412 kts 318°
2026-05-04 18:13 47.60055 13.30079 17252 ft 409 kts 318°
2026-05-04 18:13 47.64397 13.24765 16172 ft 401 kts 319°
2026-05-04 18:14 47.66549 13.22142 15654 ft 398 kts 319°
2026-05-04 18:14 47.68683 13.19543 15142 ft 395 kts 319°
2026-05-04 18:14 47.70773 13.16996 14630 ft 392 kts 319°
2026-05-04 18:15 47.75012 13.11842 14022 ft 398 kts 318°
2026-05-04 18:15 47.79247 13.06664 13897 ft 388 kts 317°
2026-05-04 18:15 47.81334 13.04109 13910 ft 388 kts 317°
2026-05-04 18:16 47.83422 13.01550 13901 ft 390 kts 317°
2026-05-04 18:16 47.85497 12.99006 13920 ft 391 kts 317°
2026-05-04 18:16 47.87598 12.96429 13893 ft 384 kts 317°
2026-05-04 18:17 47.91555 12.91574 13894 ft 352 kts 317°
2026-05-04 18:17 47.93408 12.89294 13883 ft 337 kts 317°
2026-05-04 18:17 47.96845 12.85060 13884 ft 306 kts 317°
2026-05-04 18:18 47.98421 12.82996 13888 ft 296 kts 307°
2026-05-04 18:18 47.99570 12.80482 13940 ft 295 kts 295°
2026-05-04 18:18 48.00599 12.77811 13920 ft 298 kts 295°
2026-05-04 18:18 48.01639 12.75125 13918 ft 300 kts 295°
2026-05-04 18:19 48.03745 12.69766 13902 ft 296 kts 295°
2026-05-04 18:19 48.04789 12.67139 13898 ft 293 kts 295°
2026-05-04 18:19 48.05819 12.64551 13905 ft 293 kts 296°
2026-05-04 18:20 48.06862 12.61932 13913 ft 294 kts 296°
2026-05-04 18:20 48.07908 12.59310 13913 ft 294 kts 296°
2026-05-04 18:20 48.08946 12.56708 13918 ft 295 kts 296°
2026-05-04 18:20 48.09999 12.54066 13912 ft 296 kts 296°
2026-05-04 18:21 48.11057 12.51412 13920 ft 297 kts 296°
2026-05-04 18:21 48.12115 12.48756 13919 ft 296 kts 295°
2026-05-04 18:21 48.12880 12.45979 13913 ft 285 kts 277°
2026-05-04 18:21 48.13237 12.43066 13919 ft 284 kts 275°
2026-05-04 18:22 48.13557 12.40150 13919 ft 285 kts 275°
2026-05-04 18:22 48.13849 12.37183 13988 ft 297 kts 276°
2026-05-04 18:22 48.14062 12.34016 14007 ft 310 kts 275°
2026-05-04 18:22 48.14251 12.30788 14004 ft 312 kts 274°
2026-05-04 18:23 48.14436 12.27561 13994 ft 309 kts 274°
2026-05-04 18:23 48.14615 12.24370 13991 ft 306 kts 274°
2026-05-04 18:23 48.14790 12.21241 13993 ft 304 kts 274°
2026-05-04 18:23 48.14964 12.18085 13993 ft 302 kts 274°
2026-05-04 18:24 48.15137 12.14955 13995 ft 301 kts 274°
2026-05-04 18:24 48.15309 12.11820 13998 ft 301 kts 274°
2026-05-04 18:24 48.15481 12.08690 14003 ft 301 kts 274°
2026-05-04 18:24 48.15655 12.05610 13983 ft 300 kts 277°
2026-05-04 18:25 48.16260 12.02653 13678 ft 300 kts 300°
2026-05-04 18:25 48.17651 12.00335 13269 ft 301 kts 325°
2026-05-04 18:25 48.19568 11.99109 12793 ft 302 kts 351°
2026-05-04 18:25 48.21652 11.99216 12342 ft 302 kts 15°
2026-05-04 18:26 48.23503 12.00630 11927 ft 300 kts 41°
2026-05-04 18:26 48.24902 12.02877 11533 ft 297 kts 51°
2026-05-04 18:26 48.26152 12.05332 11141 ft 295 kts 53°
2026-05-04 18:26 48.27366 12.07813 10686 ft 293 kts 54°
2026-05-04 18:27 48.28538 12.10331 10044 ft 298 kts 64°
2026-05-04 18:27 48.29348 12.13197 9591 ft 296 kts 72°
2026-05-04 18:27 48.29923 12.16082 9264 ft 289 kts 81°
2026-05-04 18:27 48.30270 12.19034 8959 ft 284 kts 83°
2026-05-04 18:28 48.30557 12.21910 8937 ft 274 kts 84°
2026-05-04 18:28 48.30835 12.24757 8895 ft 276 kts 84°
2026-05-04 18:28 48.31110 12.27624 8598 ft 279 kts 84°
2026-05-04 18:28 48.31381 12.30504 8228 ft 278 kts 84°
2026-05-04 18:29 48.31644 12.33373 7826 ft 277 kts 84°
2026-05-04 18:29 48.32049 12.36167 7363 ft 275 kts 66°
2026-05-04 18:29 48.33215 12.38394 7061 ft 266 kts 35°
2026-05-04 18:29 48.34850 12.39366 6854 ft 245 kts
2026-05-04 18:30 48.37612 12.37331 6165 ft 225 kts 296°
2026-05-04 18:30 48.38000 12.35106 5747 ft 219 kts 272°
2026-05-04 18:30 48.38076 12.32814 5269 ft 220 kts 272°
2026-05-04 18:31 48.38126 12.30535 4999 ft 216 kts 269°
2026-05-04 18:31 48.38081 12.28278 4769 ft 217 kts 266°
2026-05-04 18:31 48.37960 12.26006 4543 ft 220 kts 264°
2026-05-04 18:31 48.37802 12.23707 4303 ft 222 kts 264°
2026-05-04 18:32 48.37633 12.21425 4119 ft 221 kts 264°
2026-05-04 18:32 48.37446 12.18983 4138 ft 253 kts 263°
2026-05-04 18:32 48.37236 12.16267 4089 ft 262 kts 263°
2026-05-04 18:32 48.37025 12.13536 4043 ft 262 kts 263°
2026-05-04 18:33 48.36820 12.10863 4015 ft 248 kts 263°
2026-05-04 18:33 48.36631 12.08390 4041 ft 227 kts 263°
2026-05-04 18:33 48.36456 12.06133 4008 ft 208 kts 263°
2026-05-04 18:33 48.36297 12.04072 3993 ft 190 kts 263°
2026-05-04 18:34 48.36145 12.02086 4060 ft 193 kts 263°
2026-05-04 18:34 48.35993 12.00107 4023 ft 191 kts 263°
2026-05-04 18:34 48.35838 11.98104 3776 ft 192 kts 263°
2026-05-04 18:34 48.35686 11.96142 3525 ft 186 kts 264°
2026-05-04 18:35 48.35540 11.94232 3294 ft 183 kts 264°
2026-05-04 18:35 48.35394 11.92333 3064 ft 181 kts 264°
2026-05-04 18:35 48.35253 11.90500 2843 ft 169 kts 264°
2026-05-04 18:35 48.35124 11.88825 2606 ft 153 kts 264°
2026-05-04 18:36 48.35003 11.87255 2429 ft 153 kts 264°
2026-05-04 18:36 48.34880 11.85655 2205 ft 153 kts 264°
2026-05-04 18:36 48.34754 11.84084 1989 ft 150 kts 264°
2026-05-04 18:36 48.34635 11.82520 1770 ft 151 kts 265°
2026-05-04 18:37 48.34517 11.80969 1596 ft 149 kts 264°
2026-05-04 18:37 48.34397 11.79433 1464 ft 140 kts 264°
2026-05-04 18:37 48.34306 11.78182 1465 ft 97 kts 263°
2026-05-04 18:37 48.34250 11.77462 1470 ft 29 kts 263°
2026-05-04 18:38 48.34235 11.77241 1470 ft 19 kts 264°